[keps] orb07347.amsat

Ray Hoad r.hoad at att.net
Thu Dec 13 18:55:09 PST 2007


SB KEPS @ AMSAT  $ORB07347.O
Orbital Elements  07347.OSCAR

HR AMSAT ORBITAL ELEMENTS FOR OSCAR SATELLITES
FROM WA5QGD FORT WORTH,TX December 13, 2007
Send Subscribe/unsubscribe to KEPS at 
http://www.amsat.org/mailman/listinfo/keps
BID: ORB07347.O
TO ALL RADIO AMATEURS BT

Satellite: AO-07
Catalog number: 07530
Epoch time:      07346.66857829
Element set:    0052
Inclination:      101.4930 deg
RA of node:       019.2705 deg
Eccentricity:    0.0011838
Arg of perigee:   268.5020 deg
Mean anomaly:     091.4695 deg
Mean motion:   12.53572962 rev/day
Decay rate:       -2.8e-07 rev/day^2
Epoch rev:           51348
Checksum:              305

Satellite: AO-10
Catalog number: 14129
Epoch time:      07346.79102027
Element set:    0452
Inclination:      025.9627 deg
RA of node:       241.2611 deg
Eccentricity:    0.6046475
Arg of perigee:   080.9085 deg
Mean anomaly:     338.9585 deg
Mean motion:   02.05871220 rev/day
Decay rate:        5.4e-07 rev/day^2
Epoch rev:           18424
Checksum:              294

Satellite: UO-11
Catalog number: 14781
Epoch time:      07346.52470279
Element set:    0544
Inclination:      098.1749 deg
RA of node:       012.5327 deg
Eccentricity:    0.0008538
Arg of perigee:   323.7378 deg
Mean anomaly:     036.3266 deg
Mean motion:   14.79602385 rev/day
Decay rate:       3.95e-06 rev/day^2
Epoch rev:           27610
Checksum:              321

Satellite: RS-15
Catalog number: 23439
Epoch time:      07346.78539557
Element set:    0085
Inclination:      064.8141 deg
RA of node:       078.0928 deg
Eccentricity:    0.0153244
Arg of perigee:   158.2671 deg
Mean anomaly:     202.4846 deg
Mean motion:   11.27552823 rev/day
Decay rate:       -3.9e-07 rev/day^2
Epoch rev:           53383
Checksum:              324

Satellite: FO-29
Catalog number: 24278
Epoch time:      07346.87358571
Element set:    0659
Inclination:      098.5776 deg
RA of node:       282.7175 deg
Eccentricity:    0.0350765
Arg of perigee:   340.5855 deg
Mean anomaly:     018.2195 deg
Mean motion:   13.52935053 rev/day
Decay rate:       -3.7e-07 rev/day^2
Epoch rev:           55906
Checksum:              357

Satellite: SO-33
Catalog number: 25509
Epoch time:      07346.93019944
Element set:    0087
Inclination:      031.4326 deg
RA of node:       295.1425 deg
Eccentricity:    0.0354851
Arg of perigee:   190.0519 deg
Mean anomaly:     169.2854 deg
Mean motion:   14.28191151 rev/day
Decay rate:       2.93e-06 rev/day^2
Epoch rev:           47682
Checksum:              318

Satellite: AO-40
Catalog number: 26609
Epoch time:      07343.51025905
Element set:    0979
Inclination:      007.1161 deg
RA of node:       107.6728 deg
Eccentricity:    0.7931673
Arg of perigee:   030.6524 deg
Mean anomaly:     357.3836 deg
Mean motion:   01.25584770 rev/day
Decay rate:      -1.41e-06 rev/day^2
Epoch rev:           03264
Checksum:              305

Satellite: VO-52
Catalog number: 28650
Epoch time:      07346.36540215
Element set:    0802
Inclination:      097.8147 deg
RA of node:       052.9127 deg
Eccentricity:    0.0027811
Arg of perigee:   035.1622 deg
Mean anomaly:     325.1434 deg
Mean motion:   14.81395185 rev/day
Decay rate:       4.94e-06 rev/day^2
Epoch rev:           14079
Checksum:              299

Satellite: PO-63
Catalog number: 29712
Epoch time:      07347.56423539
Element set:     999
Inclination:      097.9031 deg
RA of node:       044.0516 deg
Eccentricity:    0.0013091
Arg of perigee:   267.5755 deg
Mean anomaly:     092.3963 deg
Mean motion:   14.79936049 rev/day
Decay rate:       6.50e-06 rev/day^2
Epoch rev:            4986
Checksum:              347

/EX
SB KEPS @ AMSAT  $ORB07347.D
Orbital Elements  07347.MICROS

HR AMSAT ORBITAL ELEMENTS FOR THE MICROSATS
FROM WA5QGD FORT WORTH,TX December 13, 2007
Send Subscribe/unsubscribe to KEPS at 
http://www.amsat.org/mailman/listinfo/keps
BID: ORB07347.D
TO ALL RADIO AMATEURS BT

Satellite: AO-16
Catalog number: 20439
Epoch time:      07346.50447173
Element set:    0202
Inclination:      098.2109 deg
RA of node:       331.3732 deg
Eccentricity:    0.0011605
Arg of perigee:   020.1514 deg
Mean anomaly:     340.0131 deg
Mean motion:   14.31778283 rev/day
Decay rate:        4.0e-08 rev/day^2
Epoch rev:           93406
Checksum:              251

Satellite: LO-19
Catalog number: 20442
Epoch time:      07346.93235024
Element set:    0127
Inclination:      098.1884 deg
RA of node:       340.8141 deg
Eccentricity:    0.0012185
Arg of perigee:   017.6145 deg
Mean anomaly:     342.5451 deg
Mean motion:   14.32017912 rev/day
Decay rate:        3.7e-07 rev/day^2
Epoch rev:           93427
Checksum:              280

Satellite: AO-27
Catalog number: 22825
Epoch time:      07346.57992387
Element set:    0849
Inclination:      098.3586 deg
RA of node:       308.9166 deg
Eccentricity:    0.0009434
Arg of perigee:   095.5052 deg
Mean anomaly:     264.7221 deg
Mean motion:   14.29224975 rev/day
Decay rate:        3.8e-07 rev/day^2
Epoch rev:           74097
Checksum:              355

Satellite: IO-26
Catalog number: 22826
Epoch time:      07346.94646848
Element set:    0549
Inclination:      098.3510 deg
RA of node:       310.2634 deg
Eccentricity:    0.0009891
Arg of perigee:   090.0399 deg
Mean anomaly:     270.1935 deg
Mean motion:   14.29472187 rev/day
Decay rate:       -7.0e-08 rev/day^2
Epoch rev:           74111
Checksum:              323

Satellite: PO-28
Catalog number: 22829
Epoch time:      07346.53503417
Element set:    0824
Inclination:      098.3391 deg
RA of node:       311.0065 deg
Eccentricity:    0.0010679
Arg of perigee:   067.8031 deg
Mean anomaly:     292.4285 deg
Mean motion:   14.30174253 rev/day
Decay rate:       -3.6e-07 rev/day^2
Epoch rev:           74130
Checksum:              290

Satellite: GO-32
Catalog number: 25397
Epoch time:      07346.81199480
Element set:    0475
Inclination:      098.3910 deg
RA of node:       025.9866 deg
Eccentricity:    0.0002168
Arg of perigee:   074.6648 deg
Mean anomaly:     285.4787 deg
Mean motion:   14.23134723 rev/day
Decay rate:       -8.1e-07 rev/day^2
Epoch rev:           48956
Checksum:              349

Satellite: MO-46
Catalog number: 26548
Epoch time:      07347.47108785
Element set:     971
Inclination:      064.5574 deg
RA of node:       347.9996 deg
Eccentricity:    0.0007157
Arg of perigee:   348.4147 deg
Mean anomaly:     011.6778 deg
Mean motion:   14.83207253 rev/day
Decay rate:       1.10e-06 rev/day^2
Epoch rev:           39012
Checksum:              334

Satellite: NO-44
Catalog number: 26931
Epoch time:      07346.64055984
Element set:    0756
Inclination:      067.0532 deg
RA of node:       047.7946 deg
Eccentricity:    0.0005032
Arg of perigee:   254.8750 deg
Mean anomaly:     105.1801 deg
Mean motion:   14.29504105 rev/day
Decay rate:      -1.93e-06 rev/day^2
Epoch rev:           32360
Checksum:              294

Satellite: SO-50
Catalog number: 27607
Epoch time:      07346.27604158
Element set:    0479
Inclination:      064.5593 deg
RA of node:       264.2895 deg
Eccentricity:    0.0074330
Arg of perigee:   317.2960 deg
Mean anomaly:     042.2390 deg
Mean motion:   14.71309394 rev/day
Decay rate:        3.5e-07 rev/day^2
Epoch rev:           26732
Checksum:              313

Satellite: CO-55
Catalog number: 27844
Epoch time:      07346.51840152
Element set:    0188
Inclination:      098.7190 deg
RA of node:       352.3848 deg
Eccentricity:    0.0009359
Arg of perigee:   302.2102 deg
Mean anomaly:     057.8164 deg
Mean motion:   14.20548231 rev/day
Decay rate:        5.3e-07 rev/day^2
Epoch rev:           23079
Checksum:              302

Satellite: CO-57
Catalog number: 27848
Epoch time:      07346.56199893
Element set:    0144
Inclination:      098.7172 deg
RA of node:       351.5651 deg
Eccentricity:    0.0009513
Arg of perigee:   304.7070 deg
Mean anomaly:     055.3209 deg
Mean motion:   14.20362442 rev/day
Decay rate:        4.8e-07 rev/day^2
Epoch rev:           23077
Checksum:              313

Satellite: AO-51
Catalog number: 28375
Epoch time:      07346.58667798
Element set:    0981
Inclination:      098.0913 deg
RA of node:       016.5181 deg
Eccentricity:    0.0084989
Arg of perigee:   002.3267 deg
Mean anomaly:     357.8304 deg
Mean motion:   14.40590195 rev/day
Decay rate:        2.1e-07 rev/day^2
Epoch rev:           18139
Checksum:              339

Satellite: CO-56
Catalog number: 28941
Epoch time:      07347.28147744
Element set:     705
Inclination:      098.1087 deg
RA of node:       069.0651 deg
Eccentricity:    0.0199631
Arg of perigee:   355.7932 deg
Mean anomaly:     004.1623 deg
Mean motion:   15.47112903 rev/day
Decay rate:     2.6242e-04 rev/day^2
Epoch rev:           10105
Checksum:              308

Satellite: HO-59
Catalog number: 29484
Epoch time:      07347.28000595
Element set:     941
Inclination:      098.2626 deg
RA of node:       066.0506 deg
Eccentricity:    0.0153313
Arg of perigee:   336.9457 deg
Mean anomaly:     022.4896 deg
Mean motion:   15.66734743 rev/day
Decay rate:     6.6762e-04 rev/day^2
Epoch rev:            6896
Checksum:              355

Satellite: NO-61
Catalog number: 29664
Epoch time:      07346.95693350
Element set:    0707
Inclination:      051.6211 deg
RA of node:       218.0169 deg
Eccentricity:    0.0002254
Arg of perigee:   287.9819 deg
Mean anomaly:     072.0954 deg
Mean motion:   16.20254434 rev/day
Decay rate:    4.27985e-03 rev/day^2
Epoch rev:           05678
Checksum:              334

Satellite: CP4
Catalog number: 31122
Epoch time:      07346.64076652
Element set:     208
Inclination:      098.0681 deg
RA of node:       053.9817 deg
Eccentricity:    0.0085448
Arg of perigee:   190.7788 deg
Mean anomaly:     169.1483 deg
Mean motion:   14.55061059 rev/day
Decay rate:       5.50e-06 rev/day^2
Epoch rev:            3480
Checksum:              315

